Change the Weather History Date:

Friday, January 17, 2014

  Actual Average Record
Temperature  
Mean Temperature 46 °F -  
Max Temperature 64 °F 66 °F 82 °F (1999)
Min Temperature 28 °F 41 °F 28 °F (2009)
Degree Days  
Heating Degree Days 19    
Moisture  
Dew Point 33 °F    
Average Humidity 66    
Maximum Humidity 76    
Minimum Humidity 45    
Precipitation  
Precipitation 0.00 in - - ()
Sea Level Pressure  
Sea Level Pressure 30.14 in    
Wind  
Wind Speed 3 mph (SW)    
Max Wind Speed 15 mph    
Max Gust Speed 18 mph    
Visibility 10 miles    
Events      
Averages and records for this station are not official NWS values.
T = Trace of Precipitation, MM = Missing Value Source: NWS Daily Summary

Daily Weather History Graph

Daily Weather History Graph

Search for Another Location

Airport or City:

Trip Planner

Search our weather history database for the weather conditions in past years. The results will help you decide how hot, cold, wet, or windy it might be!

Date:

Astronomy

Jan. 17, 2014 Rise Set
Actual Time 7:23 AM EST 5:54 PM EST
Civil Twilight 6:58 AM EST 6:20 PM EST
Nautical Twilight 6:28 AM EST 6:49 PM EST
Astronomical Twilight 6:00 AM EST 7:17 PM EST
Moon 7:28 PM EST (1/17) 8:00 AM EST (1/17)
Length of Visible Light 11h 22m
Length of Day
10h 31m
Full, 98% of the Moon is Illuminated
Jan 17
Full
Jan 24
Last Quarter
Jan 30
New
Feb 6
First Quarter
Feb 14
Full

Hourly Weather History & Observations

Time (EST) Temp. Windchill Dew Point Humidity Pressure Visibility Wind Dir Wind Speed Gust Speed Precip Events Conditions
12:15 AM 32.0 °F - 24.8 °F 75% 30.16 in 10.0 mi Calm Calm - N/A   Clear
12:35 AM 30.2 °F - 23.0 °F 75% 30.16 in 10.0 mi Calm Calm - N/A   Clear
12:55 AM 32.0 °F - 23.0 °F 69% 30.16 in 10.0 mi Calm Calm - N/A   Clear
1:15 AM 30.2 °F - 23.0 °F 75% 30.16 in 10.0 mi Calm Calm - N/A   Clear
1:35 AM 30.2 °F - 23.0 °F 75% 30.16 in 10.0 mi Calm Calm - N/A   Clear
1:55 AM 30.2 °F - 23.0 °F 75% 30.15 in 10.0 mi Calm Calm - N/A   Clear
2:15 AM 30.2 °F - 23.0 °F 75% 30.15 in 10.0 mi Calm Calm - N/A   Clear
2:35 AM 30.2 °F - 23.0 °F 75% 30.16 in 10.0 mi Calm Calm - N/A   Clear
2:55 AM 30.2 °F - 23.0 °F 75% 30.16 in 10.0 mi Calm Calm - N/A   Clear
3:15 AM 30.2 °F - 23.0 °F 75% 30.16 in 10.0 mi Calm Calm - N/A   Clear
3:35 AM 30.2 °F - 23.0 °F 75% 30.15 in 10.0 mi Calm Calm - N/A   Clear
3:55 AM 30.2 °F - 23.0 °F 75% 30.15 in 10.0 mi Calm Calm - N/A   Clear
4:15 AM 30.2 °F - 21.2 °F 69% 30.15 in 10.0 mi Calm Calm - N/A   Clear
4:35 AM 30.2 °F - 23.0 °F 75% 30.15 in 10.0 mi Calm Calm - N/A   Clear
4:55 AM 30.2 °F - 21.2 °F 69% 30.16 in 10.0 mi Calm Calm - N/A   Clear
5:15 AM 28.4 °F - 21.2 °F 74% 30.16 in 10.0 mi Calm Calm - N/A   Clear
5:35 AM 28.4 °F - 21.2 °F 74% 30.15 in 10.0 mi Calm Calm - N/A   Clear
5:55 AM 30.2 °F - 21.2 °F 69% 30.15 in 10.0 mi Calm Calm - N/A   Clear
6:15 AM 30.2 °F - 21.2 °F 69% 30.16 in 10.0 mi Calm Calm - N/A   Clear
6:35 AM 28.4 °F - 21.2 °F 74% 30.16 in 10.0 mi Calm Calm - N/A   Clear
6:50 AM 30.2 °F - 21.2 °F 69% 30.16 in 10.0 mi Calm Calm - N/A   Clear
7:50 AM 30.2 °F - 23.0 °F 75% 30.18 in 10.0 mi Calm Calm - N/A   Clear
8:50 AM 37.4 °F 32.1 °F 28.4 °F 70% 30.20 in 10.0 mi South 6.9 mph - N/A   Clear
9:50 AM 46.4 °F 43.5 °F 30.2 °F 53% 30.22 in 10.0 mi SSW 5.8 mph - N/A   Clear
10:50 AM 53.6 °F - 35.6 °F 51% 30.22 in 10.0 mi SSW 4.6 mph - N/A   Clear
11:50 AM 59.0 °F - 39.2 °F 48% 30.19 in 10.0 mi SW 6.9 mph - N/A   Clear
12:50 PM 62.6 °F - 42.8 °F 48% 30.15 in 10.0 mi WSW 10.4 mph - N/A   Scattered Clouds
1:50 PM 62.6 °F - 42.8 °F 48% 30.13 in 10.0 mi West 9.2 mph - N/A   Scattered Clouds
2:50 PM 64.4 °F - 42.8 °F 45% 30.11 in 10.0 mi West 9.2 mph 18.4 mph N/A   Partly Cloudy
3:50 PM 64.4 °F - 42.8 °F 45% 30.10 in 10.0 mi West 11.5 mph 18.4 mph N/A   Partly Cloudy
4:50 PM 64.4 °F - 42.8 °F 45% 30.10 in 10.0 mi WSW 9.2 mph - N/A   Clear
5:50 PM 59.0 °F - 42.8 °F 55% 30.11 in 10.0 mi WSW 9.2 mph - N/A   Scattered Clouds
6:50 PM 59.0 °F - 42.8 °F 55% 30.11 in 10.0 mi SSW 9.2 mph - N/A   Mostly Cloudy
7:55 PM 55.4 °F - 42.8 °F 63% 30.12 in 10.0 mi SW 8.1 mph - N/A   Overcast
8:15 PM 55.4 °F - 42.8 °F 63% 30.13 in 10.0 mi WSW 6.9 mph - N/A   Overcast
8:35 PM 55.4 °F - 42.8 °F 63% 30.13 in 10.0 mi SSW 8.1 mph - N/A   Mostly Cloudy
8:55 PM 55.4 °F - 42.8 °F 63% 30.13 in 10.0 mi SW 9.2 mph - N/A   Overcast
9:15 PM 55.4 °F - 42.8 °F 63% 30.12 in 10.0 mi SSW 13.8 mph - N/A   Overcast
9:35 PM 55.4 °F - 44.6 °F 67% 30.11 in 10.0 mi SSW 13.8 mph - N/A   Mostly Cloudy
9:55 PM 55.4 °F - 44.6 °F 67% 30.12 in 10.0 mi SSW 15.0 mph - N/A   Scattered Clouds
10:15 PM 55.4 °F - 44.6 °F 67% 30.11 in 10.0 mi SSW 12.7 mph - N/A   Clear
10:35 PM 53.6 °F - 44.6 °F 72% 30.12 in 10.0 mi SW 9.2 mph - N/A   Clear
10:55 PM 53.6 °F - 44.6 °F 72% 30.11 in 10.0 mi SW 9.2 mph - N/A   Partly Cloudy
11:15 PM 53.6 °F - 44.6 °F 72% 30.11 in 10.0 mi SW 6.9 mph - N/A   Scattered Clouds
11:35 PM 51.8 °F - 44.6 °F 76% 30.11 in 10.0 mi SW 5.8 mph - N/A   Clear
11:55 PM 51.8 °F - 44.6 °F 76% 30.11 in 10.0 mi SW 5.8 mph - N/A   Clear